Zurück zum Katalog

STARLINK-30924

AktivKommunikationVLEO
NORAD 58412·PAYLOAD·🇺🇸 United States

Gestartet Nov 22, 2023 von Cape Canaveral Space Force Station

Loading…

Nächste Überflüge (nächste 24 Stunden)

TLE

AktuellSource: CelesTrak SupGP

Epoche: Sep 14, 2026, 22:42 UTC

1 58412C 23180L   26257.94631944  .00216970  00000+0  87682-3 0  2571
2 58412  42.9811 237.8679 0027362 135.4595 153.3823 15.84601043    19

Verfolge STARLINK-30924 in Echtzeit mit AllMySat

Download on the App Store